Vertical_Velocity
-0 -0 0 2 4 3 1 -2 -2 -2 -1 -1 -1 -3 -4 -2 4 6 5 4 3 2 3 4 4 3 1 0 2 2 2 1 2 3 5 4 2 2 2 2 1 1 3 5 6 4 1 -0 -2 -3 -4 -2 1 2 1 -0 0 0 1 1 0 0 -0 -1 -0 -0 0 0 0
1 1 0 0 1 -0 -2 -3 -1 3 5 2 -1 -2 -3 -4 -3 -2 1 3 2 1 1 3 3 2 0 -2 -1 0 1 0 -0 2 4 6 6 6 6 7 6 5 6 8 7 4 -0 -2 -3 -4 -4 -0 1 1 -0 -0 0 0 -0 -1 -0 -0 -0 -1 -1 -0 -0 0 -0
1 0 -0 -0 0 -1 -1 0 2 3 2 -1 -2 -2 -2 -2 -4 -4 -3 -1 1 1 1 1 1 1 1 -2 -3 -1 0 0 -1 0 2 4 4 5 6 6 5 5 6 8 6 2 -1 -3 -3 -2 -1 -0 -1 -1 -2 -1 -1 -1 -1 -1 -1 -0 -0 -0 -1 -1 -1 -0 -0
-1 -1 -0 1 2 2 1 1 -1 -2 -3 -3 -3 -2 -1 -1 -2 -2 -3 -3 -1 1 1 -1 -1 0 1 0 -2 -2 -1 1 -0 -0 -0 0 1 2 3 3 3 4 4 4 2 0 -1 -0 2 3 3 -0 2 2 2 -1 -1 -0 -0 -0 -0 -0 -0 -1 -1 -1 -0 -0 0
-2 -1 -0 1 2 2 1 -1 -2 -4 -5 -5 -4 -2 -1 -1 -1 -1 -2 -3 -2 -0 0 -1 -1 -0 0 1 -1 -1 -0 2 0 -0 -0 -1 0 1 2 3 3 3 4 2 2 3 4 5 5 4 2 1 2 1 0 0 1 1 1 0 0 0 0 0 0 -0 -0 -0 -0
-2 -1 -0 0 0 0 -0 -2 -4 -4 -2 1 3 0 -2 -2 -1 -1 -2 -2 -2 -1 -0 -1 -1 -1 -0 -0 -0 0 2 2 2 2 1 1 2 3 3 3 3 4 3 1 2 2 3 2 1 -0 -0 0 1 1 1 2 1 1 1 0 1 1 1 1 0 -1 -1 -2 -2
-1 -1 -0 -1 -1 -1 -2 -3 -3 1 6 8 4 -1 -4 -3 -2 -2 -1 0 -0 -1 -2 -1 -1 -1 -0 -0 0 0 1 2 4 4 4 3 4 4 3 3 3 2 1 -0 -1 -2 -2 -2 -1 -0 0 1 2 2 1 1 0 0 0 1 1 0 -0 -1 -2 -2 -2 -2 -2
-1 -1 -1 -2 -1 -1 -1 -2 2 5 4 0 -2 -3 -3 -3 -2 -1 -0 2 1 -1 -2 -0 -0 0 1 1 1 1 2 3 4 6 6 5 5 4 3 2 1 -0 -1 -1 -1 -1 -1 -0 1 1 2 2 2 1 1 0 0 0 -0 -0 -1 -1 -2 -2 -2 -2 -1 -1 -1
-1 -1 -1 -1 0 0 0 -0 5 4 0 -3 -2 -1 -1 -2 -1 -0 1 2 1 -0 -1 0 1 2 2 3 2 2 3 4 4 5 5 5 5 4 3 1 0 -0 -0 -0 -1 -0 -0 1 1 2 2 2 2 1 1 0 -0 -1 -1 -2 -2 -2 -2 -2 -1 -1 -0 0 -0
-1 -1 -0 1 1 1 1 2 6 4 0 -1 0 -0 -1 -1 -0 0 1 2 2 0 -1 2 2 3 3 4 3 3 4 4 4 3 3 3 4 3 2 1 0 0 0 -0 -1 -1 -0 1 1 2 2 2 2 1 0 -1 -1 -2 -2 -3 -2 -2 -1 -0 0 0 1 0 -0
-1 -0 0 1 1 0 0 3 6 4 1 0 0 -0 -0 1 1 1 1 2 1 1 1 4 4 4 4 3 3 4 4 5 4 3 2 2 2 2 2 1 1 0 -1 -2 -2 -0 1 2 3 3 3 2 1 0 -1 -2 -2 -3 -3 -2 -1 -1 0 1 1 1 1 -0 -1
0 1 1 1 0 -0 0 5 6 4 1 -0 -0 0 1 2 2 1 1 1 -0 0 2 5 5 4 3 1 2 3 4 4 3 2 1 0 1 1 1 1 1 0 -1 -2 -1 0 2 3 3 3 2 1 -0 -1 -2 -2 -3 -2 -2 -1 0 1 1 1 1 1 0 -0 -0
2 2 1 1 -0 0 2 7 6 3 1 0 1 2 2 2 2 2 1 1 0 1 3 5 4 3 1 -1 0 1 2 3 2 1 1 0 1 1 1 1 2 1 -0 -2 -1 -0 1 3 3 2 1 -0 -1 -2 -2 -2 -1 -1 0 1 2 2 2 2 1 1 1 1 1
2 2 1 0 1 2 5 8 5 3 2 2 3 3 3 2 2 2 2 2 2 2 2 2 2 1 -0 -0 1 2 3 3 2 2 1 1 2 2 2 1 1 1 -1 -3 -2 -1 1 2 2 1 0 -1 -1 -1 -1 -0 0 1 2 3 3 2 2 2 1 1 1 2 2
2 2 1 2 3 5 7 7 3 1 0 2 3 4 4 3 3 3 3 3 2 2 2 2 1 1 1 1 2 3 3 3 3 2 2 1 2 3 2 1 0 -1 -2 -4 -3 -1 1 1 1 0 -0 -0 -0 0 1 1 2 2 3 3 2 2 1 1 1 1 2 2 2
3 2 3 4 5 5 5 3 0 -1 -1 1 2 3 4 4 4 4 4 3 3 2 3 2 2 2 2 2 3 3 3 2 2 2 1 1 1 1 -0 -1 -2 -3 -4 -4 -2 -1 0 0 0 0 0 0 1 1 1 2 2 3 3 3 2 1 1 1 1 1 2 1 2
2 2 3 3 3 2 2 1 -1 -2 -1 1 2 4 5 4 4 4 4 3 3 3 3 3 3 2 2 2 3 2 2 2 1 1 1 1 1 0 -1 -1 -2 -3 -4 -4 -2 -1 -0 -0 0 0 1 1 1 1 1 2 2 2 2 2 1 0 0 1 1 1 1 1 1
0 1 2 2 0 -0 -0 -1 -1 -2 -1 1 2 4 5 5 4 3 3 3 3 4 4 4 3 3 2 2 2 2 1 0 0 0 0 1 1 1 0 -0 -2 -3 -3 -3 -2 -1 -1 -0 0 0 1 1 1 1 2 2 2 2 1 -0 -0 -0 -0 0 0 1 1 1 1
0 1 1 -0 -0 -0 -0 -0 -1 -1 -1 1 2 3 4 4 4 3 3 2 3 4 4 4 3 2 1 1 0 0 -0 -1 -1 -1 -2 -1 0 1 1 0 -1 -1 -1 -1 -1 -1 -1 -0 0 0 1 1 1 2 2 2 1 0 -0 -1 -1 -1 -1 -0 -0 0 0 0 -0
1 1 1 0 0 1 1 1 0 -1 -1 0 1 2 3 3 3 2 2 2 2 2 2 2 2 1 -0 -1 -1 -1 -2 -2 -3 -3 -3 -1 1 2 1 0 0 0 1 0 -0 -0 -0 -0 0 1 1 1 1 1 1 1 -0 -1 -2 -2 -2 -1 -1 -1 -0 -0 -0 -0 -0
1 0 -0 1 1 1 2 2 -0 -2 -2 -0 1 2 2 2 2 2 2 2 2 1 0 0 0 -0 -0 -1 -2 -2 -3 -3 -3 -3 -2 -0 1 1 1 0 1 1 1 1 0 0 1 1 1 1 1 1 1 1 0 -1 -1 -2 -2 -2 -2 -1 -1 -1 -0 -0 -1 -1 -1
-1 -2 -2 -1 -0 1 2 2 0 -1 -2 -0 1 2 2 2 2 1 1 1 1 0 -0 -0 -0 0 0 -1 -2 -3 -4 -3 -2 -2 -1 0 1 1 1 0 1 1 1 2 2 2 1 1 1 1 1 1 1 0 -1 -2 -2 -2 -2 -1 -1 -0 -0 -0 -0 -1 -1 -1 -1
-2 -2 -2 -1 -0 1 3 3 2 1 1 1 2 2 2 2 1 1 0 0 -0 -1 -1 -1 0 1 1 -1 -2 -3 -3 -2 -2 -2 -1 1 2 2 1 1 1 2 2 3 2 1 0 0 0 1 1 1 0 -1 -1 -2 -2 -1 -1 -0 0 0 0 -0 -0 -0 -1 -1 -1
-0 -1 -0 1 2 2 2 2 1 1 1 1 1 1 1 1 1 0 -0 -1 -1 -0 0 1 1 1 0 -1 -1 -1 -1 -2 -1 -0 1 3 3 3 1 0 -0 0 1 2 1 0 -0 -0 0 1 1 0 -1 -1 -2 -2 -1 -0 -0 0 0 0 0 -0 -0 -1 -1 -1 -1
1 1 1 2 2 2 1 2 2 1 1 1 1 0 -0 -0 0 0 -1 -2 -0 1 2 2 1 1 0 0 1 0 -0 -0 0 1 2 3 3 2 1 0 -1 -2 -2 -2 -1 -0 0 0 0 -0 -1 -2 -3 -3 -2 -2 -1 -0 0 0 0 -0 -0 -0 -1 -1 -1 -1 -1
2 2 2 3 2 2 2 2 3 2 2 2 1 1 0 0 -0 -1 -1 -1 0 2 2 1 0 0 0 1 1 0 0 0 1 2 2 2 2 1 1 1 0 -1 -2 -4 -4 -3 -2 -1 -2 -3 -4 -4 -4 -3 -2 -1 -1 -0 -0 -1 -1 -1 -1 -1 -1 -1 -1 -1 -1
3 3 3 3 2 2 2 2 2 2 2 1 1 1 0 0 -0 -0 0 1 2 2 2 1 0 0 0 0 0 0 1 1 1 2 2 2 1 1 1 1 1 1 -1 -3 -5 -6 -6 -5 -5 -5 -4 -4 -2 -1 -0 0 -0 -1 -1 -1 -2 -2 -2 -1 -1 -1 -1 -0 -0
3 3 3 3 2 1 1 1 1 1 1 0 -0 0 0 0 1 1 3 3 3 2 1 1 1 0 0 0 1 2 3 3 2 2 2 1 1 1 1 1 1 -0 -1 -3 -5 -6 -7 -6 -3 -2 -1 0 1 1 1 0 -1 -1 -2 -2 -2 -2 -1 -1 -1 -1 -1 -0 -1
3 3 3 2 1 0 -1 -0 -0 -0 -0 -0 -0 0 1 1 1 2 2 1 0 0 0 1 1 1 1 2 3 4 4 3 2 2 1 1 0 -0 -1 -1 -1 -1 -2 -2 -2 -2 -1 -1 0 1 1 1 1 1 -0 -1 -1 -1 -1 -1 -1 -1 -1 -1 -1 -1 -1 -1 -0
3 2 2 1 -0 -1 -1 -1 -0 -0 -0 -0 0 1 1 1 1 2 1 1 0 1 1 1 1 1 2 2 2 2 2 1 0 0 -0 -1 -2 -2 -2 -2 -1 -0 0 1 2 2 2 1 1 1 0 -0 -0 -0 -1 -1 -1 -1 -1 -1 -1 -1 -1 -1 -1 -1 -1 -1 -0
2 2 1 0 -0 -1 -1 -0 -0 -0 0 0 1 2 2 2 2 2 1 1 1 1 1 1 0 0 0 0 0 -0 -1 -1 -2 -2 -2 -3 -2 -2 -1 -0 1 2 3 4 3 2 1 1 0 -0 -1 -1 -1 -1 -1 -1 -1 -1 -2 -2 -1 -1 -1 -0 -1 -1 -1 -1 -1
1 1 1 0 -0 -0 -0 -0 0 0 1 2 2 2 2 2 1 1 0 -0 -0 -0 -1 -1 -1 -1 -1 -1 -1 -2 -2 -2 -2 -2 -1 -1 -0 1 1 2 2 2 3 4 3 1 0 0 0 -0 -1 -1 -1 -1 -1 -1 -1 -2 -2 -2 -1 -1 -0 -0 -0 -1 -1 -1 -1
1 1 1 1 0 0 0 1 1 1 1 2 1 1 -0 -1 -1 -1 -1 -1 -1 -1 -1 -1 -1 -1 -1 -1 -1 -1 -1 -0 -0 0 1 1 2 2 2 2 2 2 2 3 2 1 -0 -0 0 -0 -1 -2 -2 -2 -2 -2 -2 -2 -2 -1 -1 -1 -0 -0 -0 -1 -1 -1 -2
1 1 1 1 1 1 1 1 1 0 0 -0 -1 -1 -1 -1 -1 -1 -0 -0 -0 -0 -0 -0 -0 -0 -0 -0 -0 0 1 1 1 1 1 2 2 2 2 2 2 1 1 1 1 0 -1 -1 -1 -2 -2 -3 -2 -2 -2 -2 -2 -2 -2 -1 0 0 0 0 -0 -0 -1 -1 -1
1 1 1 1 0 0 -0 -0 -1 -1 -1 -1 -1 -0 -0 0 1 1 0 0 0 0 -0 -0 -0 -0 0 0 0 1 1 1 1 1 1 1 2 2 2 2 1 1 1 0 0 0 -0 -1 -2 -2 -3 -4 -3 -2 -2 -3 -3 -2 -1 -0 0 1 1 1 1 1 0 -1 -1
0 0 0 -0 -1 -1 -1 -1 -1 -1 -0 0 0 1 1 1 0 0 -0 -0 -0 -0 -0 -0 -0 0 0 1 1 1 1 1 1 1 1 1 1 1 1 1 1 0 -0 -1 -1 0 2 3 1 -1 -2 -4 -3 -3 -3 -3 -3 -2 -1 -0 0 1 1 1 1 1 1 -0 -1
-1 -1 -1 -1 -1 -1 -1 -1 0 1 1 1 0 0 0 -0 -0 -0 -0 -0 -0 -0 -0 0 0 0 1 1 1 1 1 1 1 1 1 1 1 0 0 0 0 -0 -1 -1 -1 0 3 7 4 2 -1 -3 -3 -3 -3 -2 -1 -0 0 1 1 1 1 1 1 1 0 -1 -2
-1 -1 -1 -1 -0 -0 0 1 1 1 1 1 0 0 0 -0 -0 -0 -0 -0 -0 -0 -0 0 0 0 -0 -0 -0 0 0 -0 0 0 0 0 0 0 0 0 0 -0 -1 -1 -0 1 4 9 7 4 -0 -3 -2 -2 -1 -1 0 1 1 1 1 1 0 -0 -0 -0 -1 -2 -3
-0 0 0 1 1 1 1 2 2 1 1 1 1 0 0 0 -0 -0 -0 -0 -0 -0 -0 -0 -1 -1 -1 -1 -1 -1 -1 -1 -1 -1 -1 -0 -0 -0 0 0 0 -0 -0 -0 2 2 4 7 5 2 -2 -4 -2 -1 -0 0 0 0 0 -1 -1 -2 -2 -2 -2 -2 -2 -2 -3
1 1 1 1 1 1 2 1 1 1 1 1 1 0 0 -0 -0 -1 -1 -1 -1 -1 -1 -1 -1 -1 -1 -1 -2 -2 -2 -2 -2 -2 -2 -1 -1 -0 -0 0 0 0 -0 -0 1 1 1 3 2 -0 -3 -5 -3 -1 -1 -1 -1 -2 -3 -4 -5 -5 -4 -2 -2 -1 -1 -1 -1
1 1 1 1 1 1 1 1 0 0 0 0 -0 -0 -1 -1 -1 -1 -1 -1 -1 -1 -1 -1 -1 -1 -1 -1 -2 -2 -2 -2 -2 -2 -2 -2 -1 -1 -0 0 1 0 -0 -1 -1 -0 0 0 0 -1 -2 -4 -3 -3 -3 -3 -4 -5 -6 -7 -6 -5 -4 -2 -1 -0 -0 -0 -1
Height
1451 1451 1452 1453 1453 1454 1455 1456 1456 1457 1458 1459 1460 1461 1462 1463 1464 1465 1466 1467 1467 1467 1468 1468 1468 1468 1469 1470 1470 1471 1472 1473 1474 1475 1476 1476 1477 1477 1478 1478 1479 1480 1481 1481 1481 1481 1481 1482 1483 1483 1484 1484 1484 1484 1484 1484 1485 1485 1485 1485 1485 1485 1485 1485 1485 1485 1485 1485 1485
1450 1450 1451 1451 1452 1453 1454 1455 1456 1457 1458 1458 1459 1460 1461 1462 1463 1464 1464 1465 1466 1466 1467 1467 1467 1468 1468 1469 1470 1470 1471 1472 1473 1474 1475 1476 1476 1477 1477 1477 1478 1479 1480 1480 1480 1480 1481 1481 1482 1482 1482 1483 1483 1483 1483 1484 1484 1483 1483 1483 1483 1483 1483 1483 1483 1484 1484 1484 1483
1449 1449 1450 1451 1451 1452 1453 1455 1456 1456 1457 1457 1458 1459 1460 1461 1462 1463 1464 1464 1465 1466 1466 1466 1467 1467 1467 1468 1469 1469 1470 1471 1471 1472 1473 1474 1475 1476 1476 1476 1477 1478 1479 1479 1479 1480 1480 1481 1481 1481 1481 1482 1482 1482 1482 1482 1482 1482 1482 1482 1482 1482 1482 1482 1482 1482 1482 1482 1482
1447 1448 1449 1450 1451 1452 1453 1453 1454 1455 1456 1456 1457 1458 1459 1460 1461 1462 1463 1464 1464 1465 1465 1466 1466 1466 1467 1467 1468 1469 1469 1470 1471 1471 1472 1473 1474 1475 1475 1476 1476 1477 1478 1478 1479 1479 1479 1480 1480 1480 1481 1481 1481 1481 1481 1481 1481 1481 1481 1481 1481 1481 1481 1481 1481 1481 1481 1480 1480
1446 1447 1448 1450 1451 1451 1452 1452 1453 1454 1455 1456 1456 1457 1458 1459 1460 1461 1462 1463 1464 1464 1464 1465 1465 1466 1466 1467 1467 1468 1468 1469 1470 1471 1471 1472 1473 1474 1475 1475 1476 1476 1477 1477 1478 1478 1479 1479 1479 1479 1480 1480 1480 1480 1480 1480 1480 1480 1480 1480 1479 1479 1479 1479 1479 1479 1478 1478 1478
1446 1447 1448 1449 1449 1450 1451 1452 1453 1454 1454 1455 1456 1456 1457 1458 1459 1460 1461 1462 1463 1463 1464 1464 1465 1465 1466 1466 1467 1467 1468 1468 1469 1470 1471 1471 1472 1473 1473 1474 1475 1475 1476 1476 1477 1477 1478 1478 1478 1479 1479 1479 1479 1479 1479 1479 1479 1479 1478 1478 1478 1478 1477 1477 1477 1476 1476 1476 1476
1445 1446 1447 1448 1448 1449 1450 1451 1452 1453 1454 1454 1455 1456 1456 1457 1458 1459 1460 1461 1462 1463 1463 1464 1464 1465 1465 1466 1466 1467 1467 1468 1469 1469 1470 1470 1471 1471 1472 1472 1473 1474 1475 1475 1476 1476 1477 1477 1477 1477 1477 1477 1477 1477 1477 1477 1478 1477 1477 1477 1476 1476 1476 1476 1475 1476 1476 1475 1475
1445 1446 1446 1447 1448 1448 1449 1450 1451 1452 1453 1454 1454 1455 1456 1456 1457 1458 1459 1460 1461 1462 1463 1463 1464 1464 1465 1465 1466 1466 1467 1467 1468 1468 1469 1469 1470 1471 1471 1471 1472 1473 1474 1474 1475 1476 1476 1476 1476 1476 1476 1476 1476 1476 1476 1476 1476 1476 1476 1476 1475 1475 1475 1475 1475 1475 1475 1475 1475
1444 1445 1446 1446 1447 1448 1449 1450 1450 1451 1452 1453 1453 1454 1455 1455 1456 1457 1458 1459 1460 1461 1462 1462 1463 1463 1464 1465 1465 1466 1466 1466 1467 1467 1468 1469 1469 1470 1470 1471 1471 1472 1472 1473 1474 1474 1475 1475 1475 1475 1475 1475 1475 1475 1475 1475 1475 1474 1474 1474 1474 1474 1474 1474 1474 1474 1474 1474 1474
1443 1444 1445 1446 1446 1447 1448 1449 1450 1450 1451 1452 1452 1453 1454 1455 1456 1457 1458 1459 1459 1460 1461 1461 1462 1463 1463 1464 1465 1465 1465 1466 1466 1467 1467 1468 1468 1469 1469 1470 1470 1471 1471 1472 1473 1473 1474 1474 1474 1474 1474 1474 1473 1473 1473 1473 1473 1473 1473 1473 1473 1473 1473 1473 1473 1473 1473 1473 1473
1442 1443 1444 1445 1446 1446 1447 1448 1449 1450 1450 1451 1452 1452 1453 1454 1455 1456 1457 1458 1459 1460 1460 1461 1461 1462 1463 1464 1464 1465 1465 1465 1466 1466 1467 1467 1468 1468 1468 1469 1469 1470 1470 1471 1472 1473 1473 1473 1473 1472 1472 1472 1472 1472 1472 1472 1472 1472 1472 1472 1472 1472 1472 1472 1472 1472 1472 1472 1472
1441 1442 1443 1444 1445 1446 1447 1447 1448 1449 1450 1451 1451 1452 1453 1454 1454 1455 1456 1457 1458 1459 1460 1461 1461 1462 1463 1463 1464 1464 1465 1465 1466 1466 1466 1467 1467 1468 1468 1468 1469 1469 1470 1471 1471 1472 1472 1471 1471 1471 1471 1471 1471 1471 1471 1471 1471 1471 1471 1471 1471 1471 1471 1471 1471 1471 1471 1471 1471
1441 1442 1443 1444 1444 1445 1446 1447 1448 1449 1450 1450 1451 1451 1452 1453 1454 1455 1456 1457 1458 1459 1460 1460 1461 1462 1462 1463 1464 1464 1465 1465 1465 1466 1466 1466 1467 1467 1468 1468 1468 1468 1469 1470 1470 1471 1470 1470 1470 1470 1470 1471 1471 1471 1471 1471 1471 1471 1471 1471 1471 1471 1471 1471 1471 1471 1471 1471 1471
1441 1441 1442 1443 1444 1445 1446 1446 1447 1448 1449 1450 1450 1451 1452 1453 1454 1455 1456 1456 1457 1458 1459 1460 1461 1461 1462 1463 1463 1464 1464 1465 1465 1465 1466 1466 1466 1467 1467 1467 1467 1468 1468 1469 1469 1470 1470 1470 1470 1470 1470 1470 1470 1470 1470 1470 1470 1470 1470 1470 1470 1470 1470 1470 1470 1470 1470 1470 1470
1440 1441 1442 1443 1444 1445 1445 1446 1447 1448 1449 1449 1450 1451 1451 1452 1453 1454 1455 1456 1456 1457 1458 1459 1460 1461 1462 1462 1463 1463 1464 1464 1465 1465 1466 1466 1466 1466 1466 1466 1466 1467 1467 1468 1469 1469 1469 1470 1470 1470 1470 1470 1469 1469 1470 1470 1470 1470 1470 1469 1469 1469 1469 1469 1469 1469 1469 1469 1468
1440 1441 1442 1443 1444 1444 1445 1445 1446 1447 1448 1449 1450 1451 1451 1452 1453 1454 1455 1455 1456 1457 1458 1459 1460 1461 1461 1462 1462 1463 1463 1464 1464 1465 1465 1465 1465 1465 1466 1466 1466 1466 1467 1468 1468 1469 1469 1469 1469 1469 1469 1469 1469 1469 1469 1469 1469 1469 1469 1468 1468 1468 1468 1468 1468 1468 1468 1467 1467
1441 1441 1442 1442 1443 1444 1445 1445 1446 1447 1448 1449 1450 1451 1451 1452 1453 1454 1455 1456 1456 1457 1458 1459 1460 1461 1461 1461 1462 1462 1463 1463 1464 1464 1464 1465 1465 1465 1465 1465 1465 1466 1466 1467 1468 1469 1469 1469 1469 1469 1469 1469 1468 1468 1468 1468 1468 1468 1467 1467 1467 1467 1467 1467 1467 1467 1466 1466 1466
1441 1441 1441 1442 1443 1444 1445 1446 1447 1448 1449 1450 1450 1451 1452 1453 1453 1455 1455 1456 1456 1457 1458 1459 1460 1461 1461 1461 1462 1462 1462 1463 1463 1463 1464 1464 1464 1465 1465 1465 1465 1466 1466 1467 1468 1468 1468 1468 1468 1468 1468 1468 1468 1468 1467 1467 1467 1466 1466 1466 1466 1466 1466 1466 1466 1466 1466 1465 1465
1440 1441 1441 1442 1443 1444 1445 1446 1447 1448 1449 1450 1451 1452 1452 1453 1454 1455 1456 1456 1457 1458 1458 1459 1459 1460 1461 1461 1461 1462 1462 1462 1463 1463 1464 1464 1465 1465 1465 1465 1465 1466 1466 1467 1467 1467 1467 1468 1468 1468 1467 1467 1467 1467 1467 1466 1466 1466 1466 1466 1466 1466 1465 1465 1465 1464 1464 1464 1463
1440 1441 1442 1443 1444 1445 1446 1446 1447 1449 1450 1451 1452 1452 1453 1454 1455 1456 1456 1457 1458 1458 1459 1459 1460 1460 1461 1461 1461 1462 1462 1463 1463 1464 1464 1465 1465 1465 1465 1465 1465 1466 1466 1466 1466 1467 1467 1467 1467 1467 1467 1467 1466 1466 1466 1466 1465 1465 1465 1465 1465 1465 1464 1464 1463 1463 1463 1462 1462
1441 1441 1442 1443 1444 1445 1446 1447 1448 1450 1451 1452 1453 1453 1454 1455 1456 1456 1457 1457 1458 1458 1459 1459 1460 1461 1461 1461 1462 1462 1463 1463 1464 1465 1465 1466 1465 1465 1465 1465 1465 1465 1466 1466 1466 1466 1466 1466 1466 1466 1466 1466 1466 1465 1465 1465 1465 1464 1464 1464 1464 1463 1463 1462 1462 1461 1461 1461 1460
1441 1442 1443 1444 1445 1446 1446 1447 1449 1450 1452 1453 1453 1454 1455 1455 1456 1456 1457 1457 1458 1458 1459 1459 1460 1461 1461 1461 1462 1463 1463 1464 1465 1465 1466 1466 1466 1465 1465 1465 1465 1465 1465 1465 1465 1465 1465 1465 1466 1466 1466 1465 1465 1465 1464 1464 1464 1464 1463 1463 1462 1462 1461 1461 1461 1460 1460 1459 1459
1442 1443 1444 1444 1445 1446 1446 1447 1449 1450 1451 1453 1453 1454 1455 1456 1456 1457 1457 1458 1458 1459 1459 1460 1461 1461 1461 1462 1463 1463 1464 1464 1465 1465 1466 1466 1465 1465 1465 1465 1465 1465 1464 1464 1464 1464 1464 1465 1465 1465 1465 1464 1464 1464 1463 1463 1463 1463 1462 1461 1461 1461 1460 1460 1459 1459 1458 1458 1458
1443 1443 1444 1445 1446 1446 1447 1448 1449 1451 1451 1452 1453 1454 1455 1456 1456 1457 1457 1458 1459 1459 1460 1461 1461 1461 1462 1463 1463 1464 1464 1464 1465 1465 1466 1466 1465 1465 1465 1464 1464 1464 1464 1463 1463 1463 1464 1464 1464 1463 1463 1463 1463 1462 1462 1462 1462 1461 1461 1460 1460 1459 1459 1458 1458 1458 1457 1457 1457
1444 1445 1446 1446 1446 1447 1448 1449 1451 1451 1452 1453 1454 1455 1456 1456 1457 1457 1458 1459 1459 1460 1460 1461 1461 1462 1463 1463 1463 1464 1464 1464 1465 1465 1465 1465 1465 1465 1464 1464 1463 1463 1462 1462 1462 1462 1463 1463 1462 1462 1462 1462 1462 1461 1461 1461 1460 1460 1459 1458 1458 1457 1457 1457 1457 1456 1456 1456 1456
1445 1446 1447 1447 1448 1449 1450 1451 1452 1453 1453 1454 1455 1456 1456 1457 1457 1458 1459 1459 1460 1460 1461 1461 1462 1462 1463 1463 1463 1463 1464 1464 1464 1464 1464 1464 1464 1464 1464 1463 1463 1462 1461 1461 1461 1461 1461 1462 1462 1461 1461 1461 1461 1460 1460 1459 1458 1457 1457 1456 1456 1456 1456 1456 1456 1455 1455 1455 1454
1446 1447 1448 1449 1450 1451 1452 1452 1453 1454 1455 1455 1456 1456 1457 1457 1458 1458 1459 1459 1460 1460 1461 1461 1462 1462 1463 1463 1463 1463 1464 1464 1464 1464 1464 1464 1463 1463 1463 1463 1463 1462 1461 1460 1460 1460 1460 1460 1460 1460 1460 1459 1459 1459 1458 1457 1456 1456 1455 1455 1455 1455 1455 1455 1454 1454 1453 1453 1452
1448 1449 1450 1451 1451 1452 1453 1453 1454 1455 1455 1456 1456 1456 1457 1457 1458 1458 1459 1459 1460 1460 1461 1461 1461 1462 1462 1463 1463 1463 1463 1463 1463 1463 1463 1463 1463 1463 1462 1462 1462 1462 1461 1460 1459 1458 1458 1458 1458 1458 1458 1458 1457 1457 1456 1456 1455 1454 1454 1454 1454 1454 1454 1453 1453 1453 1452 1452 1451
1449 1450 1451 1451 1452 1453 1454 1454 1455 1455 1456 1456 1456 1457 1457 1458 1458 1459 1459 1459 1460 1461 1461 1461 1461 1462 1462 1462 1462 1462 1462 1462 1462 1462 1462 1462 1462 1462 1461 1461 1461 1461 1461 1460 1459 1458 1457 1457 1457 1457 1457 1456 1456 1456 1456 1455 1454 1454 1453 1453 1453 1453 1453 1452 1452 1451 1451 1451 1450
1451 1451 1452 1453 1453 1454 1454 1455 1456 1456 1456 1456 1457 1457 1458 1458 1459 1459 1460 1460 1460 1461 1461 1461 1461 1462 1462 1462 1462 1462 1462 1462 1462 1461 1461 1461 1461 1461 1461 1461 1461 1461 1461 1460 1459 1458 1457 1456 1456 1456 1456 1456 1456 1455 1455 1454 1454 1453 1453 1453 1452 1452 1452 1451 1451 1451 1450 1450 1450
1452 1453 1453 1454 1454 1455 1455 1456 1456 1456 1457 1457 1457 1458 1458 1459 1459 1459 1460 1460 1460 1461 1461 1461 1461 1461 1461 1461 1461 1461 1461 1461 1461 1461 1461 1461 1461 1461 1461 1461 1461 1461 1461 1460 1459 1458 1457 1456 1456 1455 1455 1455 1455 1454 1454 1454 1453 1453 1453 1452 1452 1452 1451 1451 1450 1450 1449 1449 1449
1453 1454 1454 1455 1455 1456 1456 1456 1457 1457 1457 1457 1458 1458 1459 1459 1459 1460 1460 1460 1460 1461 1461 1461 1461 1461 1461 1461 1461 1461 1461 1461 1461 1461 1461 1460 1460 1460 1460 1460 1460 1460 1460 1460 1459 1457 1456 1456 1456 1455 1455 1454 1454 1454 1454 1453 1453 1453 1452 1452 1452 1451 1451 1450 1450 1449 1449 1448 1448
1454 1455 1455 1456 1456 1456 1456 1456 1457 1457 1457 1458 1458 1458 1459 1459 1459 1459 1460 1460 1460 1460 1460 1460 1460 1460 1460 1460 1460 1460 1460 1460 1460 1460 1460 1460 1460 1460 1459 1459 1459 1459 1459 1459 1458 1457 1456 1456 1455 1455 1454 1454 1454 1453 1453 1453 1452 1452 1452 1452 1451 1451 1450 1450 1449 1449 1448 1448 1447
1455 1456 1456 1456 1456 1456 1457 1457 1457 1458 1458 1458 1459 1459 1459 1459 1459 1459 1459 1459 1460 1460 1460 1460 1460 1460 1460 1460 1460 1460 1460 1460 1460 1460 1459 1459 1459 1459 1459 1458 1458 1458 1458 1458 1457 1456 1456 1455 1455 1455 1454 1454 1453 1453 1453 1452 1452 1452 1452 1451 1451 1450 1450 1449 1449 1448 1448 1447 1446
1456 1456 1457 1457 1457 1457 1458 1458 1458 1458 1459 1459 1459 1459 1459 1459 1459 1459 1459 1459 1460 1460 1460 1460 1460 1460 1460 1460 1460 1460 1459 1459 1459 1459 1459 1458 1458 1458 1458 1458 1457 1457 1458 1458 1457 1457 1456 1456 1455 1454 1454 1453 1453 1453 1452 1452 1452 1452 1451 1451 1451 1450 1450 1449 1448 1448 1447 1447 1446
1457 1457 1457 1458 1458 1458 1458 1458 1459 1459 1459 1459 1459 1459 1459 1459 1459 1459 1459 1459 1459 1459 1459 1459 1459 1459 1459 1459 1459 1459 1459 1459 1458 1458 1458 1458 1458 1457 1457 1457 1457 1457 1457 1457 1458 1458 1457 1456 1455 1454 1454 1453 1453 1452 1452 1452 1452 1451 1451 1451 1450 1450 1449 1449 1448 1447 1447 1446 1445
1457 1458 1458 1458 1458 1458 1458 1459 1459 1459 1459 1459 1459 1459 1459 1459 1459 1459 1459 1459 1459 1459 1459 1459 1459 1459 1458 1458 1458 1458 1458 1458 1458 1457 1457 1457 1457 1457 1457 1456 1456 1456 1457 1457 1458 1458 1458 1458 1456 1455 1454 1453 1453 1452 1452 1452 1451 1451 1451 1451 1450 1449 1449 1448 1447 1447 1446 1446 1445
1458 1458 1459 1459 1459 1459 1459 1459 1460 1460 1460 1460 1459 1459 1459 1459 1459 1459 1459 1459 1458 1458 1458 1458 1458 1458 1457 1457 1457 1457 1457 1456 1456 1456 1456 1456 1456 1456 1456 1456 1456 1456 1456 1457 1458 1458 1458 1458 1456 1454 1453 1453 1452 1452 1452 1451 1451 1451 1451 1450 1449 1448 1448 1447 1447 1446 1446 1445 1445
1459 1459 1459 1459 1460 1460 1460 1460 1460 1460 1460 1460 1459 1459 1459 1459 1459 1458 1458 1458 1458 1458 1457 1457 1457 1456 1456 1456 1456 1456 1456 1456 1456 1456 1456 1456 1456 1456 1456 1456 1456 1456 1456 1457 1458 1458 1458 1457 1456 1454 1453 1453 1452 1452 1451 1451 1451 1450 1450 1449 1448 1447 1447 1447 1446 1446 1446 1445 1445
1460 1460 1460 1460 1460 1460 1460 1460 1460 1460 1460 1459 1459 1459 1459 1458 1458 1458 1458 1457 1457 1457 1457 1456 1456 1456 1456 1455 1455 1455 1455 1455 1455 1455 1455 1455 1455 1456 1456 1456 1456 1456 1456 1456 1457 1457 1457 1456 1456 1454 1453 1452 1452 1452 1451 1451 1450 1449 1449 1448 1447 1447 1446 1446 1446 1446 1445 1445 1444
1460 1460 1460 1460 1460 1460 1460 1460 1460 1459 1459 1459 1459 1459 1458 1458 1458 1458 1457 1457 1457 1456 1456 1456 1456 1455 1455 1455 1455 1454 1454 1454 1454 1454 1455 1455 1455 1455 1455 1455 1455 1456 1456 1456 1456 1456 1456 1456 1456 1455 1454 1453 1452 1451 1451 1450 1450 1449 1448 1447 1447 1446 1446 1446 1446 1446 1445 1444 1444